Weather History for KLBT - October, 2011

Change the Weather History Date:

Thursday, October 20, 2011

  Actual Average Record
Temperature  
Mean Temperature 54 °F 62 °F  
Max Temperature 63 °F 74 °F 86 °F (2005)
Min Temperature 45 °F 50 °F 35 °F (2008)
Degree Days  
Heating Degree Days 11 5  
Month to date heating degree days 52 54  
Since 1 July heating degree days 59 63  
Cooling Degree Days 0 2  
Month to date cooling degree days 36 57  
Year to date cooling degree days 2293 1878  
Growing Degree Days 4 (Base 50)    
Moisture  
Dew Point 42 °F    
Average Humidity 68    
Maximum Humidity 92    
Minimum Humidity 43    
Precipitation  
Precipitation 0.00 in 0.07 in 0.52 in (1999)
Month to date precipitation 2.36 1.94  
Year to date precipitation 36.87 37.13  
Sea Level Pressure  
Sea Level Pressure 29.80 in    
Wind  
Wind Speed 11 mph (WSW)    
Max Wind Speed 24 mph    
Max Gust Speed 31 mph    
Visibility 10 miles    
Events      
T = Trace of Precipitation, MM = Missing Value Source: NWS Daily Summary

Daily Weather History Graph

Daily Weather History Graph

Search for Another Location

Airport or City:

Trip Planner

Search our weather history database for the weather conditions in past years. The results will help you decide how hot, cold, wet, or windy it might be!

Date:

Astronomy

Oct. 20, 2011 Rise Set
Actual Time 7:25 AM EDT 6:35 PM EDT
Civil Twilight 7:00 AM EDT 7:01 PM EDT
Nautical Twilight 6:30 AM EDT 7:30 PM EDT
Astronomical Twilight 6:01 AM EDT 7:59 PM EDT
Moon 12:26 AM EDT (10/20) 2:27 PM EDT (10/20)
Length of Visible Light 12h 01m
Length of Day
11h 10m
Last Quarter, 44% of the Moon is Illuminated
Oct 20
Last Quarter
Oct 26
New
Nov 2
First Quarter
Nov 10
Full
Nov 18
Last Quarter

Hourly Weather History & Observations

Time (EDT) Temp. Windchill Dew Point Humidity Pressure Visibility Wind Dir Wind Speed Gust Speed Precip Events Conditions
12:54 AM 51.1 °F - 42.1 °F 71% 29.60 in 10.0 mi WSW 13.8 mph 23.0 mph N/A   Clear
1:54 AM 50.0 °F - 42.1 °F 74% 29.62 in 10.0 mi SW 10.4 mph - N/A   Clear
2:54 AM 48.9 °F - 41.0 °F 74% 29.64 in 10.0 mi SW 10.4 mph - N/A   Clear
3:54 AM 48.9 °F - 42.1 °F 77% 29.66 in 10.0 mi SW 10.4 mph - N/A   Clear
4:54 AM 48.0 °F - 42.1 °F 80% 29.69 in 10.0 mi SW 8.1 mph 16.1 mph N/A   Clear
5:54 AM 46.9 °F - 42.1 °F 83% 29.72 in 10.0 mi SW 10.4 mph - N/A   Clear
6:54 AM 48.0 °F - 41.0 °F 77% 29.73 in 10.0 mi SW 10.4 mph - N/A   Clear
7:54 AM 48.0 °F - 41.0 °F 77% 29.75 in 10.0 mi SW 9.2 mph 18.4 mph N/A   Clear
8:54 AM 50.0 °F - 42.1 °F 74% 29.79 in 10.0 mi SW 13.8 mph 23.0 mph N/A   Clear
9:54 AM 53.1 °F - 42.1 °F 66% 29.81 in 10.0 mi WSW 16.1 mph 26.5 mph N/A   Clear
10:54 AM 57.0 °F - 41.0 °F 55% 29.81 in 10.0 mi West 23.0 mph 28.8 mph N/A   Clear
11:54 AM 60.1 °F - 42.1 °F 51% 29.82 in 10.0 mi WSW 18.4 mph 25.3 mph N/A   Clear
12:54 PM 61.0 °F - 41.0 °F 48% 29.81 in 10.0 mi SW 21.9 mph 31.1 mph N/A   Clear
1:54 PM 61.0 °F - 39.9 °F 46% 29.80 in 10.0 mi West 17.3 mph 27.6 mph N/A   Partly Cloudy
2:54 PM 62.1 °F - 39.9 °F 44% 29.81 in 10.0 mi West 17.3 mph 25.3 mph N/A   Clear
3:54 PM 61.0 °F - 41.0 °F 48% 29.83 in 10.0 mi WSW 15.0 mph 24.2 mph N/A   Mostly Cloudy
4:54 PM 60.1 °F - 41.0 °F 49% 29.84 in 10.0 mi WSW 16.1 mph 20.7 mph N/A   Partly Cloudy
5:54 PM 59.0 °F - 42.1 °F 53% 29.87 in 10.0 mi WSW 11.5 mph - N/A   Partly Cloudy
6:54 PM 53.1 °F - 43.0 °F 69% 29.89 in 10.0 mi WSW 3.5 mph - N/A   Clear
7:54 PM 51.1 °F - 44.1 °F 77% 29.92 in 10.0 mi SW 3.5 mph - N/A   Clear
8:54 PM 51.1 °F - 43.0 °F 74% 29.94 in 10.0 mi SW 4.6 mph - N/A   Clear
9:54 PM 50.0 °F - 43.0 °F 77% 29.96 in 10.0 mi SW 5.8 mph - N/A   Clear
10:54 PM 46.9 °F - 43.0 °F 86% 29.99 in 10.0 mi WSW 3.5 mph - N/A   Clear
11:54 PM 45.0 °F 42.6 °F 42.1 °F 90% 30.00 in 10.0 mi SW 4.6 mph - N/A   Clear